Snowfall_Accumulation
2.3 2.2 9.6 10.6 10.4 10.9 22.1 13.2 20.6 16.7 13.8 15.7 16.8 19.1 17.5 15.2 13.1 9.4 8.7 10.1 7.6 4.7 3.3 2.2 1.9 1.6 2.2 1.8 1.1 0.6 0.3 0.2 0.1 0.0 0.0 0.0 0.0 0.0 0.0 0.0 0.0 0.0 0.0 0.0
7.9 3.1 5.9 9.5 6.2 7.2 10.7 8.7 11.7 9.9 9.6 12.9 15.5 14.0 14.1 12.3 11.3 11.4 14.3 13.5 8.8 6.8 3.7 3.2 3.3 3.2 2.6 1.8 1.1 0.8 0.9 0.4 0.1 0.1 0.1 0.0 0.1 0.0 0.0 0.1 0.0 0.0 0.0 0.0
8.8 3.2 6.7 14.5 14.9 9.3 9.0 10.5 13.2 18.2 17.5 15.2 14.4 13.9 15.9 15.6 17.0 17.8 20.6 17.7 13.1 7.9 5.7 4.2 3.3 3.1 2.8 1.6 1.2 0.9 0.7 0.3 0.1 0.1 0.2 0.0 0.0 0.0 0.0 0.0 0.0 0.0 0.0 0.0
10.2 6.1 15.7 7.4 4.3 6.3 8.7 10.0 10.2 11.0 13.8 14.9 14.1 11.4 13.0 15.8 22.0 22.2 25.0 21.5 16.7 12.8 7.6 4.2 2.5 2.1 1.8 1.4 1.5 1.1 0.7 0.2 0.3 0.6 0.4 0.1 0.5 1.1 0.7 0.1 1.3 0.7 0.8 6.7
9.3 4.7 1.4 1.1 1.0 2.6 6.5 9.4 6.6 8.2 8.0 8.4 6.5 5.7 5.7 5.6 11.4 18.8 25.9 25.5 21.9 18.9 11.2 6.1 3.8 2.6 2.4 1.4 1.0 0.7 1.2 1.8 0.5 1.6 1.2 1.3 4.3 3.2 7.2 3.6 10.2 7.0 4.9 3.8
7.2 8.5 3.2 1.5 0.1 0.3 2.4 9.5 2.0 6.0 7.3 7.4 6.8 7.6 7.1 8.0 12.8 16.5 21.1 26.3 30.4 21.9 9.4 5.8 2.9 2.1 1.8 1.3 1.1 0.4 0.6 0.8 0.8 0.4 0.5 2.8 6.8 6.0 5.3 6.0 6.6 5.1 3.3 1.6
4.5 9.6 1.5 0.5 0.5 0.6 3.1 4.8 3.3 5.2 7.3 9.3 12.4 14.8 11.6 10.0 10.9 13.8 18.5 25.8 28.3 19.3 8.5 4.5 3.1 3.2 1.3 1.4 1.3 1.8 2.8 2.9 2.8 1.2 1.7 1.5 5.9 4.8 3.4 2.8 2.4 2.1 1.1 0.4
3.9 8.5 3.1 0.1 0.0 1.2 2.6 0.8 2.6 4.2 6.6 9.1 6.6 5.4 5.6 6.5 8.4 12.4 17.1 26.4 32.2 25.5 16.1 11.8 9.3 4.6 4.7 7.0 3.2 2.4 5.2 2.6 4.6 3.6 2.7 1.8 0.4 0.3 2.5 2.7 4.7 3.2 2.7 2.0
1.7 0.5 0.5 0.4 0.6 0.6 0.2 1.3 2.0 5.8 4.1 5.7 4.0 3.3 3.0 4.6 5.9 9.7 14.7 25.5 35.3 36.9 30.2 14.6 9.2 8.2 8.5 7.3 6.5 7.1 5.0 5.6 8.5 7.9 6.5 5.2 3.5 4.0 6.8 5.8 5.8 7.8 4.8 2.0
0.8 0.6 1.1 0.9 0.0 0.0 0.3 1.3 2.4 3.6 3.4 2.3 3.2 1.8 1.6 1.8 4.1 7.2 10.9 22.4 32.7 32.1 27.5 15.0 15.0 14.8 8.9 7.0 5.5 5.2 7.4 8.9 8.4 8.7 8.2 10.5 9.4 8.4 7.6 10.1 9.9 9.2 7.2 6.6
0.4 2.5 1.5 1.1 0.4 0.5 0.7 1.4 1.0 0.2 1.0 2.2 2.4 1.0 1.9 1.6 2.7 5.7 9.3 16.4 27.3 33.0 33.4 24.6 19.4 21.1 15.2 12.7 7.2 7.9 8.2 10.0 10.3 10.5 10.0 9.6 9.7 9.2 9.1 8.1 7.3 9.9 10.2 9.3
1.7 0.7 1.9 0.6 0.5 0.2 1.2 0.8 0.9 1.6 1.1 1.2 2.1 2.3 1.7 1.6 1.9 4.3 7.8 13.0 19.5 28.7 31.6 32.2 27.3 20.4 19.2 13.2 8.5 8.5 8.3 7.8 7.9 8.7 9.0 8.0 7.7 8.4 8.0 6.9 7.7 9.0 9.2 10.6
1.7 0.0 0.2 0.6 0.5 0.3 1.1 0.7 1.4 1.8 2.5 3.1 2.3 2.7 1.8 2.3 2.4 1.8 5.4 9.2 13.5 23.8 33.6 36.0 32.6 24.3 19.1 18.1 9.0 7.7 7.3 6.1 6.6 9.4 9.0 9.0 7.7 6.3 8.9 8.8 6.5 6.2 6.0 5.9
0.3 1.3 1.2 0.7 1.2 0.5 1.1 1.0 1.4 1.9 2.4 2.8 3.8 2.4 2.5 2.6 2.8 2.4 5.8 9.8 10.0 13.9 23.8 29.3 26.6 21.6 17.3 16.0 15.3 9.7 9.6 7.6 7.9 8.2 9.8 9.8 9.3 8.2 5.5 5.6 6.8 7.6 5.0 4.0
2.0 2.1 2.0 2.0 1.2 1.3 1.4 1.2 1.2 2.6 3.8 5.1 5.1 6.6 6.4 5.6 5.8 6.1 5.8 5.1 5.7 7.8 14.2 16.5 15.9 21.5 23.8 17.9 17.4 9.7 10.6 10.1 7.8 8.9 9.2 10.3 8.7 8.3 7.4 6.3 5.1 4.6 5.1 4.4
3.1 3.3 3.7 2.9 3.5 3.1 3.3 3.2 3.3 5.6 6.2 8.1 8.6 10.0 9.7 7.5 6.5 5.9 6.1 4.3 3.8 8.1 10.9 13.9 13.1 17.2 18.9 16.5 13.9 13.3 12.6 13.0 8.2 7.1 7.0 7.3 7.4 6.9 7.3 7.2 5.4 4.6 4.0 4.3
4.5 6.2 4.3 4.2 5.3 5.8 7.0 7.4 7.2 8.2 8.2 8.1 10.3 10.0 7.8 6.2 5.4 5.2 5.9 4.9 4.0 6.5 9.6 10.2 13.0 11.4 11.6 12.9 14.4 14.0 14.2 10.4 10.7 5.0 5.0 6.1 7.3 8.3 6.6 6.9 6.9 6.6 6.0 4.4
9.9 9.9 7.5 7.8 8.3 7.0 7.2 7.7 7.8 7.1 8.2 8.9 8.1 6.8 6.3 5.6 7.7 7.4 8.3 6.2 3.8 3.8 5.0 7.0 8.2 7.5 8.6 9.3 10.9 13.1 12.3 12.4 9.2 8.8 7.8 5.9 6.6 8.3 9.3 9.8 8.5 10.2 7.8 7.1
9.0 8.8 8.6 7.8 7.2 6.7 6.7 6.6 6.5 6.9 7.7 7.2 5.7 7.1 6.4 7.4 6.7 6.6 5.9 3.2 3.0 3.8 6.0 4.7 4.4 4.7 5.4 7.4 7.6 9.7 9.9 11.7 10.5 9.2 8.0 8.7 7.2 7.3 8.0 9.1 9.1 10.9 10.3 10.5
8.8 9.0 7.4 6.8 5.3 4.5 5.2 8.4 6.3 6.0 6.6 5.0 3.4 3.5 3.2 4.0 3.6 3.6 2.2 2.7 4.6 7.6 4.3 4.9 3.9 3.0 3.8 5.5 5.0 5.4 9.4 11.1 13.7 12.0 12.8 12.4 12.3 12.1 10.8 13.3 12.3 12.7 13.0 14.6
6.0 5.9 4.1 3.0 3.3 2.8 3.3 2.5 1.9 1.6 1.7 1.6 1.3 1.9 2.0 1.8 1.2 0.8 1.8 2.0 2.1 4.0 3.6 3.1 3.1 4.0 4.4 7.5 6.3 6.3 7.0 11.5 14.3 18.7 18.4 18.9 16.8 16.4 12.5 12.0 13.0 13.0 15.0 14.9
2.0 1.6 2.0 2.4 2.0 1.7 1.6 1.3 0.9 0.9 0.9 0.9 1.2 1.2 0.9 0.6 0.2 0.4 1.4 4.5 1.9 2.3 1.7 2.9 4.2 5.6 7.9 8.7 7.6 6.4 8.5 11.3 17.0 21.4 22.5 21.9 20.4 18.8 17.0 13.6 13.7 13.9 14.7 14.8
2.2 1.2 1.4 1.5 1.1 1.3 1.3 1.2 1.1 1.2 1.1 0.7 0.9 1.2 1.6 1.1 0.9 3.1 3.9 0.8 1.4 2.4 3.6 3.6 5.7 6.5 6.3 8.1 6.0 7.5 10.4 14.0 15.8 18.9 21.6 22.7 22.5 23.1 22.5 21.1 20.9 19.4 20.2 17.5
3.2 1.8 1.2 0.8 0.7 0.6 0.9 1.0 1.1 1.2 0.9 0.7 0.4 0.7 1.3 1.9 0.9 0.6 1.6 1.6 1.1 2.8 2.1 4.1 5.2 6.1 6.6 7.2 7.9 11.1 13.2 14.5 16.0 17.3 20.3 21.1 21.9 22.0 22.6 21.7 20.2 19.8 20.1 19.3
1.6 1.2 1.3 0.9 0.8 0.9 1.0 1.5 1.3 1.1 0.9 0.9 0.5 0.8 0.7 0.7 2.5 1.6 1.6 1.4 1.5 1.1 1.0 2.6 2.6 3.1 3.7 5.6 8.6 10.5 12.1 14.4 17.1 17.0 17.5 18.6 19.4 20.1 20.0 19.8 19.6 18.7 18.6 18.0
1.6 1.3 1.0 0.5 0.7 1.6 1.7 1.8 2.2 1.7 2.3 2.3 1.3 0.5 0.4 0.9 0.9 1.2 1.3 1.7 1.3 1.5 1.8 2.5 2.1 3.7 5.2 6.3 7.6 9.0 10.1 11.4 13.0 14.0 14.5 15.5 15.8 16.0 16.4 15.7 16.5 16.3 16.1 17.2
0.8 0.8 1.1 1.2 0.5 0.2 1.1 2.1 3.2 2.5 2.1 2.4 2.2 0.7 0.8 0.9 0.7 1.4 1.6 1.5 1.0 1.2 1.6 2.9 3.6 5.1 5.5 6.3 6.1 6.7 7.4 8.0 9.9 10.9 10.9 11.8 12.5 13.6 15.0 15.4 15.3 15.0 14.8 14.8